Location: Clarion
(42.7316°N, 93.7330°W)
Time: 09:22:27
(UTC+00:00)

Cosmos 2278 Rocket - Pass Details

Date: 22 April 2026
Orbit: 839 x 845 km, 71.0° (Epoch: 16 May)

Event Time Altitude Azimuth Distance (km) Brightness Sun altitude
Rises 01:40:35 0° 334° (NNW) 3,413 6.2 -7.1°
Reaches altitude 10° 01:43:03 10° 333° (NNW) 2,474 5.5 -7.5°
Maximum altitude 01:48:43 77° 248° (WSW) 869 2.4 -8.4°
Drops below altitude 10° 01:54:21 10° 163° (SSE) 2,454 4.2 -9.4°
Enters shadow 01:56:35 - 162° (SSE) 3,314 4.9 -9.7°
